Regional Weather Roundup
Issued by NWS Wakefield, VA

Current Version | Previous Version | Text Only | Print | Product List | Glossary On
Versions: 1 2 3 4 5 6 7 8 9 10 11 12 13 14 15 16 17 18 19 20 21 22 23 24 25 26 27 28 29 30 31 32 33 34 35 36 37 38 39 40 41 42 43 44 45 46 47 48 49 50
000
ASUS41 KAKQ 231514
RWRAKQ

REGIONAL WEATHER ROUNDUP
NATIONAL WEATHER SERVICE WAKEFIELD VA
1100 AM EDT SAT MAY 23 2015

Note: "fair" indicates few or no clouds below 12,000 feet with no
significant weather and/or obstructions to visibility. * = Denotes
station may not report precipitation (e.g., rain,snow,etc.),
thunder or fog.

VAZ042-051-052>054-056-231600-
NORTHERN VIRGINIA

CITY           SKY/WX    TMP DP  RH WIND       PRES   REMARKS
WASH NATIONAL  MOSUNNY   66  28  24 N5        30.48S
DULLES         MOSUNNY   62  27  26 CALM      30.48S
FORT BELVOIR   SUNNY     64  28  25 VRB2      30.47F
QUANTICO       SUNNY     63  31  30 E7        30.49S
FREDERICKSBRG* SUNNY     65  34  31 E3        30.47S
STAFFORD*      SUNNY     63  26  24 CALM      30.51F
WARRENTON      SUNNY     65  34  31 NE3       30.47S
CULPEPER*      SUNNY     63  32  31 N3        30.48F
MANASSAS*      SUNNY     63  30  29 N5        30.48S
LEESBURG*      SUNNY     63  32  31 CALM      30.48S
WINCHESTER     MOSUNNY   63  14  15 CALM      30.46S
FRONT ROYAL*   FAIR      61  36  39 CALM      30.46S
LURAY*         FAIR      64  36  34 NE5       30.46F
$$

VAZ048-049-060>072-079>083-231600-
CENTRAL AND SOUTH CENTRAL VIRGINIA

CITY           SKY/WX    TMP DP  RH WIND       PRES   REMARKS
RICHMOND       MOSUNNY   67  34  29 E8        30.47S
CHESTERFIELD*  NOT AVBL
PETERSBURG*    SUNNY     68  32  25 NE7       30.48R
HANOVER        SUNNY     65  34  31 NE8       30.49S
TAPPAHANNOCK*  SUNNY     66  20  16 N8        30.48R
QUINTON*       FAIR      65  36  33 NE6       30.47S
CHARLOTTSVILLE SUNNY     65  33  30 E6        30.46F
GORDONSVILLE*  FAIR      63  33  32 NE3       30.47S
ORANGE*        SUNNY     64  34  32 CALM      30.49S
LOUISA*        SUNNY     64  36  34 E3        30.46F
BUMPASS*       FAIR      64  34  33 E5        30.48S
FARMVILLE*     SUNNY     67  35  30 NE6       30.46S
CREWE*         FAIR      65  35  32 E6        30.47S
FORT PICKETT*  FAIR      64  37  36 E6        30.47S
CHASE CITY*    FAIR      67  40  36 N6        30.47S
CLARKSVILLE*   FAIR      68  37  32 E7        30.46F
SOUTH HILL*    SUNNY     65  36  33 CALM      30.52S
LAWRENCEVILLE* FAIR      66  36  32 NE3       30.46F
EMPORIA*       SUNNY     66  34  30 N7        30.48S
$$

VAZ088>098-231600-
SOUTHEAST VIRGINIA

CITY           SKY/WX    TMP DP  RH WIND       PRES   REMARKS
NORFOLK        SUNNY     67  41  38 NE12      30.45R
VIRGINIA BEACH MOSUNNY   68  41  37 NE12G18   30.45R
NORFOLK NAVAL  MOSUNNY   71  44  37 N14       30.47R
WEST POINT*    SUNNY     69  23  18 N7        30.48S
SALUDA*        FAIR      65  38  37 NE7       30.46S
NEWPORT NEWS   SUNNY     72  43  35 VRB7      30.45S
LANGLEY AFB    SUNNY     67  41  38 NE10      30.44S
FORT EUSTIS    SUNNY     68  42  39 N7        30.44S
WILLIAMSBURG*  SUNNY     72  41  33 N3        30.47S
HR EXEC AP*    FAIR      70  48  46 NE9       30.47R
FRANKLIN*      SUNNY     69  39  33 E7        30.46R
WAKEFIELD      SUNNY     68  36  30 NE5       30.46R
$$

VAZ020-022-025-037-045-231600-
WEST CENTRAL AND SOUTHWEST VIRGINIA

CITY           SKY/WX    TMP DP  RH WIND       PRES   REMARKS
STAUNTON*      MOSUNNY   64  31  28 NE5       30.48F
WAYNESBORO*    FAIR      62  32  32 N6        30.46F
HOT SPRINGS VA MOSUNNY   56  42  59 CALM      30.47R
LYNCHBURG      SUNNY     63  37  38 SE5       30.49S
DANVILLE       SUNNY     68  39  34 NE8       30.48R
SOUTH BOSTON*  FAIR      67  38  34 NE10      30.47S
MARTINSVILLE   SUNNY     69  47  45 E7        30.50R
ROANOKE        PTSUNNY   65  47  52 SE10      30.49R
BLACKSBURG     CLOUDY    60  47  61 CALM      30.50S
DUBLIN*        PTSUNNY   64  46  52 CALM      30.49R
MARION*        SUNNY     68  47  45 E9        30.49S
HILLSVILLE*    MOSUNNY   64  46  50 CALM      30.48S
RICHLANDS*     FAIR      65  47  51 E5        30.46F
WISE*          SUNNY     66  37  34 SE6       30.47S
ABINGDON*      SUNNY     71  40  32 SE3       30.44S
$$

MDZ021>025-VAZ099-100-231600-
SOUTHERN MARYLAND AND THE DELMARVA PENINSULA

CITY           SKY/WX    TMP DP  RH WIND       PRES   REMARKS
PATUXENT RIVER MOSUNNY   63  32  31 N9        30.47S
BAY BRIDGE APT   N/A    N/A N/A N/A N8        30.48S
LEONARDTOWN    SUNNY     61  28  29 CALM      30.49R
DOVER          SUNNY     61  37  42 NW10      30.43R
GEORGETOWN     SUNNY     63  36  36 VRB7      30.46R
EASTON         MOSUNNY   63  32  31 N3        30.50R
CAMBRIDGE      SUNNY     63  30  29 NW5       30.46S
SALISBURY      SUNNY     63  32  31 N7        30.46R
OCEAN CITY     SUNNY     61  41  47 E9        30.46R
WALLOPS ISLAND SUNNY     63  42  46 E9        30.47R
ACCOMACK*      SUNNY     64   0   7 N3        30.45F
$$

NCZ012>017-030>032-231600-
NORTH CENTRAL AND EASTERN NORTH CAROLINA

CITY           SKY/WX    TMP DP  RH WIND       PRES   REMARKS
ROANOKE RAPIDS FAIR      68  43  40 NE9       30.45S
RALEIGH        MOSUNNY   69  46  43 E6        30.46R
ELIZABETH CITY MOSUNNY   70  42  36 NE14      30.44R
AHOSKIE*       SUNNY     69  44  41 N9        30.45S
EDENTON*       MOSUNNY   71  46  39 E7        30.43S
CURRITUCK*     MOSUNNY   68  37  31 N12       30.46R
KILL DEVIL HLS MOSUNNY   66  47  50 NE12G21   30.43R
MANTEO         MOSUNNY   66  46  49 NE14G21   30.44R
CAPE HATTERAS  SUNNY     71  55  56 N10G18    30.42R
TARBORO*       FAIR      72  48  42 E8        30.45S
GOLDSBORO      SUNNY    N/A N/A N/A MISG        N/A
WASHINGTON     MOSUNNY   71  52  51 NE12G17   30.43R
GREENVILLE     SUNNY     70  50  49 NE10G16   30.43S
NEW BERN       SUNNY     74  47  38 N6        30.42S
WILMINGTON     SUNNY     75  50  41 N8        30.40S
$$

VAZ048-231600-
ELSEWHERE

CITY           SKY/WX    TMP DP  RH WIND       PRES   REMARKS
HARRISBURG PA  MOSUNNY   57  30  35 W10       30.46R
BALTIMORE      MOSUNNY   62  26  25 CALM      30.46S
ANNAPOLIS      SUNNY     61  23  23 VRB3      30.47S
ANDREWS AFB    SUNNY     62  30  29 VRB2      30.46S
PHILADELPHIA   MOSUNNY   58  22  24 NW7       30.46S
HENDERSON NC   MOSUNNY   67  36  32 NE7       30.46S
GREENSBORO     SUNNY     69  47  45 E8        30.45S
ROCKY MOUNT    SUNNY     72  44  36 N13       30.44S
$$

VAZ100-231600-
MARINE

STATION/POSITION TIME  TEMP    WIND        PRES    WAVE   SWELL
                       AIR SEA DIR/SP/G            HT/PER HT/PER
                 (UTC) (F)     (DEG/KT/KT) (MB)    (FT/S) (FT/S)
BRANDYWINE LGT   1400   55 62  360/ 12/ 16 1031.2R
CAPE MAY NJ      1400   58 67  330/  7/ 10 1030.7R
LEWES DE         1400   56 62   20/  7/  9 1031.1R
15NM E FENWICK I 1450   55 59              1031.2R   3/ 4
OCEAN-CITY-INLET 1400   58 62   80/  7/ 10 1030.9R
WACHAPREAGUE VA  1400   63 66   50/  7/ 10 1031.3R
THOMAS POINT MD  1500   59 65   60/  8/  9 1032.6R
GOOSES REEF MD   1500   58 64   10/ 10/ 12 1032.9R   2/ 3
SOLOMONS ISLAND  1400      67                N/A
BISHOPS HEAD MD  1400   60 65   20/  6/ 11 1031.1R
PINEY POINT MD   1400           30/  6/  8   N/A
CAMBRIDGE MD     1400   59 68  350/  6/ 10 1031.3R
LEWISETTA VA     1400   61 67              1031.7R
RAPPAHANNOCK LGT 1400           10/ 12/ 13 1031.8R
STINGRAY PT      1500   62 69   20/ 12/ 14 1031.1S   2/ 2
YORK RVR RNG VA  1400   63      40/ 13/ 15 1030.7R
YORKTOWN VA      1400   63 70   10/  9/ 11 1031.1R
JAMESTOWN VA     1500   65 73   20/  6/ 10 1030.5S
DOMINION TERM VA 1400   67      30/  3/ 10 1031.0R
KIPTOPEKE VA     1400      71   50/ 11/ 16   N/A
CHES BAY BRIDGE  1400   63 67   20/ 13/ 14 1030.4R
CAPE HENRY VA    1400   62      30/ 14/ 16 1029.6R
CHESAPEAKE LGHT  1400   60      30/ 18/ 19 1031.0R
WILLOUBY STN VA  1400   63      40/ 12/ 14 1031.7R
CAPE HENRY BUOY  1428      62                N/A     3/ 4
1ST LANDING BUOY 1500      67              1030.8R
CAPE CHARLES BUO 1426      64                N/A     3/ 4   2/ 7
OFFSHORE WE BUOY 1411      60                N/A     3/ 4   2/ 6
64NM E OF VA BCH 1450   61 60   20/ 12/ 14 1030.0R   2/ 3   2/ 8
DUCK PIER NC     1400   63 64   30/ 17/ 20 1029.3R
44100 DUCK FRF   1424      60                N/A     2/ 9
44056 DUCK FRF   1411      64                N/A     2/ 9
OREGON INLET NC  1400   66 68   30/ 12/ 17 1029.8R
HATTERAS NC      1400   70 71  360/ 13/ 18 1029.2R
DIAMOND SHLS NC  1450   68 77   20/ 17/ 19 1029.4R   3/ 9   3/ 9
CAPE LOOKOUT NC  1500   72      50/  7/  8 1029.4R
$$


USA.gov is the U.S. government's official web portal to all federal, state and local government web resources and services.